Wetterdaten: aktuell Samstag, 20.07.2019 09:36
Datum Zeit Temp. A. Feuchte A. Luftdruck Regen Wind Richtung Richtung Taupunkt Windchill
20.07.2019 09:36 22,1 C 66 % 1016,1 hPa 0,0 l/m 3,1 km/h (1 Bft) NO 53 15,4 C 22,1 C
20.07.2019 09:35 22,1 C 66 % 1016,2 hPa 0,0 l/m 6,5 km/h (2 Bft) NO 46 15,4 C 22,1 C
20.07.2019 09:34 22,1 C 66 % 1016,0 hPa 0,0 l/m 8,0 km/h (2 Bft) O 98 15,4 C 21,6 C
20.07.2019 09:33 22,1 C 66 % 1016,0 hPa 0,0 l/m 4,8 km/h (1 Bft) O-NO 74 15,4 C 22,1 C
20.07.2019 09:32 22,1 C 66 % 1016,0 hPa 0,0 l/m 3,1 km/h (1 Bft) O-NO 64 15,4 C 22,1 C
20.07.2019 09:31 22,0 C 67 % 1016,1 hPa 0,0 l/m 4,8 km/h (1 Bft) O 96 15,6 C 22,0 C
20.07.2019 09:30 22,0 C 67 % 1016,1 hPa 0,0 l/m 0,0 km/h (0 Bft) SW 231 15,6 C 22,0 C
20.07.2019 09:29 21,9 C 66 % 1016,0 hPa 0,0 l/m 3,1 km/h (1 Bft) O-SO 108 15,3 C 21,9 C
20.07.2019 09:28 21,9 C 66 % 1016,0 hPa 0,0 l/m 1,7 km/h (1 Bft) O-SO 109 15,3 C 21,9 C
20.07.2019 09:27 21,9 C 66 % 1016,1 hPa 0,0 l/m 8,0 km/h (2 Bft) O 94 15,3 C 21,3 C
20.07.2019 09:26 21,9 C 65 % 1016,1 hPa 0,0 l/m 8,0 km/h (2 Bft) O 90 15,0 C 21,3 C
20.07.2019 09:25 22,0 C 65 % 1016,1 hPa 0,0 l/m 11,3 km/h (2 Bft) O 86 15,1 C 20,5 C
20.07.2019 09:24 22,1 C 66 % 1015,9 hPa 0,0 l/m 11,3 km/h (2 Bft) O-NO 78 15,4 C 20,6 C
20.07.2019 09:23 22,0 C 67 % 1016,0 hPa 0,0 l/m 4,8 km/h (1 Bft) O-SO 112 15,6 C 22,0 C
20.07.2019 09:22 21,9 C 66 % 1016,0 hPa 0,0 l/m 3,1 km/h (1 Bft) S-SW 202 15,3 C 21,9 C
20.07.2019 09:21 21,9 C 66 % 1016,0 hPa 0,0 l/m 1,7 km/h (1 Bft) SO 134 15,3 C 21,9 C
20.07.2019 09:20 21,8 C 66 % 1015,9 hPa 0,0 l/m 3,1 km/h (1 Bft) SO 140 15,2 C 21,8 C
20.07.2019 09:19 21,8 C 67 % 1016,0 hPa 0,0 l/m 6,5 km/h (2 Bft) O-SO 121 15,4 C 21,8 C
20.07.2019 09:18 21,7 C 67 % 1016,0 hPa 0,0 l/m 8,0 km/h (2 Bft) SO 127 15,3 C 21,1 C
20.07.2019 09:17 21,6 C 68 % 1016,0 hPa 0,0 l/m 4,8 km/h (1 Bft) O 88 15,4 C 21,6 C
20.07.2019 09:16 21,6 C 67 % 1016,0 hPa 0,0 l/m 11,3 km/h (2 Bft) O 94 15,2 C 20,1 C
20.07.2019 09:15 21,5 C 67 % 1016,0 hPa 0,0 l/m 6,5 km/h (2 Bft) O-SO 111 15,1 C 21,5 C
20.07.2019 09:14 21,5 C 67 % 1016,0 hPa 0,0 l/m 8,0 km/h (2 Bft) O 89 15,1 C 20,9 C
20.07.2019 09:13 21,5 C 67 % 1016,1 hPa 0,0 l/m 6,5 km/h (2 Bft) O-NO 64 15,1 C 21,5 C
20.07.2019 09:12 21,5 C 67 % 1016,0 hPa 0,0 l/m 4,8 km/h (1 Bft) NO 52 15,1 C 21,5 C
20.07.2019 09:11 21,6 C 67 % 1015,9 hPa 0,0 l/m 13,0 km/h (3 Bft) O 86 15,2 C 19,6 C
20.07.2019 09:10 21,6 C 66 % 1016,0 hPa 0,0 l/m 9,6 km/h (2 Bft) O 101 15,0 C 20,5 C
20.07.2019 09:09 21,7 C 66 % 1016,1 hPa 0,0 l/m 13,0 km/h (3 Bft) O 84 15,1 C 19,7 C
20.07.2019 09:08 21,7 C 66 % 1016,0 hPa 0,0 l/m 8,0 km/h (2 Bft) O 82 15,1 C 21,1 C
20.07.2019 09:07 21,7 C 67 % 1016,0 hPa 0,0 l/m 8,0 km/h (2 Bft) O-NO 76 15,3 C 21,1 C
20.07.2019 09:06 21,7 C 67 % 1016,1 hPa 0,0 l/m 8,0 km/h (2 Bft) O-NO 62 15,3 C 21,1 C
20.07.2019 09:05 21,7 C 66 % 1016,0 hPa 0,0 l/m 8,0 km/h (2 Bft) NO 51 15,1 C 21,1 C
20.07.2019 09:04 21,6 C 67 % 1015,9 hPa 0,0 l/m 13,0 km/h (3 Bft) O 96 15,2 C 19,6 C
20.07.2019 09:03 21,6 C 67 % 1016,0 hPa 0,0 l/m 6,5 km/h (2 Bft) NO 47 15,2 C 21,6 C
20.07.2019 09:02 21,6 C 68 % 1016,1 hPa 0,0 l/m 4,8 km/h (1 Bft) O 91 15,4 C 21,6 C
20.07.2019 09:01 21,5 C 68 % 1016,0 hPa 0,0 l/m 1,7 km/h (1 Bft) S-SO 160 15,3 C 21,5 C
20.07.2019 09:00 21,4 C 68 % 1016,0 hPa 0,0 l/m 6,5 km/h (2 Bft) O-SO 116 15,2 C 21,4 C
20.07.2019 08:59 21,3 C 68 % 1016,1 hPa 0,0 l/m 4,8 km/h (1 Bft) O-SO 118 15,1 C 21,3 C
20.07.2019 08:58 21,3 C 69 % 1016,1 hPa 0,0 l/m 13,0 km/h (3 Bft) O-SO 113 15,4 C 19,3 C
20.07.2019 08:57 21,2 C 69 % 1016,0 hPa 0,0 l/m 3,1 km/h (1 Bft) S-SW 193 15,3 C 21,2 C
20.07.2019 08:56 21,1 C 69 % 1016,0 hPa 0,0 l/m 9,6 km/h (2 Bft) SO 137 15,2 C 20,0 C
20.07.2019 08:55 21,1 C 69 % 1016,0 hPa 0,0 l/m 4,8 km/h (1 Bft) O-SO 117 15,2 C 21,1 C
20.07.2019 08:54 21,1 C 69 % 1016,0 hPa 0,0 l/m 4,8 km/h (1 Bft) O 98 15,2 C 21,1 C
20.07.2019 08:53 21,1 C 69 % 1016,1 hPa 0,0 l/m 4,8 km/h (1 Bft) O-NO 69 15,2 C 21,1 C
20.07.2019 08:52 21,1 C 69 % 1016,1 hPa 0,0 l/m 8,0 km/h (2 Bft) NO 55 15,2 C 20,5 C
20.07.2019 08:51 21,1 C 69 % 1016,0 hPa 0,0 l/m 4,8 km/h (1 Bft) O-NO 61 15,2 C 21,1 C
20.07.2019 08:50 21,1 C 70 % 1016,1 hPa 0,0 l/m 3,1 km/h (1 Bft) O-NO 62 15,4 C 21,1 C
20.07.2019 08:49 21,1 C 70 % 1016,0 hPa 0,0 l/m 8,0 km/h (2 Bft) O-SO 103 15,4 C 20,5 C
20.07.2019 08:48 21,0 C 71 % 1016,0 hPa 0,0 l/m 8,0 km/h (2 Bft) SO 132 15,5 C 20,4 C
20.07.2019 08:47 21,0 C 70 % 1016,0 hPa 0,0 l/m 0,0 km/h (0 Bft) SO 129 15,3 C 21,0 C
20.07.2019 08:46 21,0 C 71 % 1016,0 hPa 0,0 l/m 11,3 km/h (2 Bft) O-SO 116 15,5 C 19,4 C
20.07.2019 08:45 20,9 C 71 % 1016,0 hPa 0,0 l/m 4,8 km/h (1 Bft) O-SO 105 15,4 C 20,9 C
20.07.2019 08:44 20,8 C 72 % 1015,9 hPa 0,0 l/m 9,6 km/h (2 Bft) O 94 15,6 C 19,6 C
20.07.2019 08:43 20,7 C 72 % 1016,0 hPa 0,0 l/m 1,7 km/h (1 Bft) W 271 15,5 C 20,7 C
20.07.2019 08:42 20,6 C 72 % 1016,0 hPa 0,0 l/m 4,8 km/h (1 Bft) O-NO 63 15,4 C 20,6 C
20.07.2019 08:41 20,6 C 72 % 1016,0 hPa 0,0 l/m 0,0 km/h (0 Bft) O 98 15,4 C 20,6 C
20.07.2019 08:40 20,5 C 72 % 1015,9 hPa 0,0 l/m 1,7 km/h (1 Bft) O 100 15,3 C 20,5 C
20.07.2019 08:39 20,5 C 72 % 1016,0 hPa 0,0 l/m 3,1 km/h (1 Bft) O 100 15,3 C 20,5 C
20.07.2019 08:38 20,5 C 72 % 1015,9 hPa 0,0 l/m 4,8 km/h (1 Bft) O 82 15,3 C 20,5 C
20.07.2019 08:37 20,5 C 72 % 1015,9 hPa 0,0 l/m 8,0 km/h (2 Bft) O 85 15,3 C 19,9 C
20.07.2019 08:36 20,5 C 72 % 1015,9 hPa 0,0 l/m 3,1 km/h (1 Bft) O 83 15,3 C 20,5 C
20.07.2019 08:35 20,4 C 73 % 1016,0 hPa 0,0 l/m 8,0 km/h (2 Bft) O-SO 112 15,4 C 19,8 C
20.07.2019 08:34 20,4 C 72 % 1016,0 hPa 0,0 l/m 1,7 km/h (1 Bft) O-SO 123 15,2 C 20,4 C
20.07.2019 08:33 20,3 C 73 % 1015,9 hPa 0,0 l/m 4,8 km/h (1 Bft) SO 128 15,3 C 20,3 C
20.07.2019 08:32 20,3 C 73 % 1016,0 hPa 0,0 l/m 3,1 km/h (1 Bft) SO 126 15,3 C 20,3 C
20.07.2019 08:31 20,3 C 73 % 1015,9 hPa 0,0 l/m 4,8 km/h (1 Bft) O 99 15,3 C 20,3 C
20.07.2019 08:30 20,2 C 73 % 1015,9 hPa 0,0 l/m 11,3 km/h (2 Bft) SO 128 15,2 C 18,5 C
20.07.2019 08:29 20,2 C 73 % 1016,0 hPa 0,0 l/m 8,0 km/h (2 Bft) O-SO 122 15,2 C 19,6 C
20.07.2019 08:28 20,2 C 73 % 1016,0 hPa 0,0 l/m 6,5 km/h (2 Bft) O-SO 120 15,2 C 20,2 C
20.07.2019 08:27 20,2 C 73 % 1016,0 hPa 0,0 l/m 3,1 km/h (1 Bft) O-SO 122 15,2 C 20,2 C
20.07.2019 08:26 20,2 C 73 % 1016,0 hPa 0,0 l/m 3,1 km/h (1 Bft) SO 138 15,2 C 20,2 C
20.07.2019 08:25 20,1 C 73 % 1016,0 hPa 0,0 l/m 11,3 km/h (2 Bft) O 100 15,1 C 18,3 C
20.07.2019 08:24 20,1 C 73 % 1016,0 hPa 0,0 l/m 4,8 km/h (1 Bft) SO 142 15,1 C 20,1 C
20.07.2019 08:23 20,0 C 74 % 1016,0 hPa 0,0 l/m 4,8 km/h (1 Bft) O-SO 123 15,2 C 20,0 C
20.07.2019 08:22 20,0 C 73 % 1015,9 hPa 0,0 l/m 4,8 km/h (1 Bft) O-SO 109 15,0 C 20,0 C
20.07.2019 08:21 20,0 C 73 % 1016,0 hPa 0,0 l/m 6,5 km/h (2 Bft) SO 140 15,0 C 20,0 C
20.07.2019 08:20 19,9 C 73 % 1016,0 hPa 0,0 l/m 1,7 km/h (1 Bft) O-SO 113 14,9 C 19,9 C
20.07.2019 08:19 19,9 C 74 % 1015,9 hPa 0,0 l/m 8,0 km/h (2 Bft) O-SO 123 15,1 C 19,2 C
20.07.2019 08:18 19,9 C 73 % 1015,9 hPa 0,0 l/m 4,8 km/h (1 Bft) NO 46 14,9 C 19,9 C
20.07.2019 08:17 19,9 C 73 % 1015,9 hPa 0,0 l/m 4,8 km/h (1 Bft) O-NO 59 14,9 C 19,9 C
20.07.2019 08:16 19,9 C 73 % 1015,9 hPa 0,0 l/m 3,1 km/h (1 Bft) O 96 14,9 C 19,9 C
20.07.2019 08:15 19,9 C 73 % 1015,9 hPa 0,0 l/m 6,5 km/h (2 Bft) O-NO 76 14,9 C 19,9 C
20.07.2019 08:14 20,0 C 73 % 1015,8 hPa 0,0 l/m 6,5 km/h (2 Bft) O-NO 77 15,0 C 20,0 C
20.07.2019 08:13 20,0 C 73 % 1015,8 hPa 0,0 l/m 9,6 km/h (2 Bft) O 88 15,0 C 18,8 C
20.07.2019 08:12 20,0 C 73 % 1015,9 hPa 0,0 l/m 4,8 km/h (1 Bft) O 86 15,0 C 20,0 C
20.07.2019 08:11 19,9 C 74 % 1015,9 hPa 0,0 l/m 1,7 km/h (1 Bft) O-NO 71 15,1 C 19,9 C
20.07.2019 08:10 19,9 C 74 % 1015,9 hPa 0,0 l/m 3,1 km/h (1 Bft) SO 130 15,1 C 19,9 C
20.07.2019 08:09 19,9 C 74 % 1015,9 hPa 0,0 l/m 8,0 km/h (2 Bft) O 90 15,1 C 19,2 C
20.07.2019 08:08 19,9 C 74 % 1015,8 hPa 0,0 l/m 1,7 km/h (1 Bft) O-SO 103 15,1 C 19,9 C
20.07.2019 08:07 19,9 C 74 % 1015,8 hPa 0,0 l/m 3,1 km/h (1 Bft) O-SO 117 15,1 C 19,9 C
20.07.2019 08:06 19,9 C 74 % 1015,9 hPa 0,0 l/m 6,5 km/h (2 Bft) O-SO 102 15,1 C 19,9 C
20.07.2019 08:05 19,8 C 74 % 1015,9 hPa 0,0 l/m 4,8 km/h (1 Bft) O 92 15,0 C 19,8 C
20.07.2019 08:04 19,8 C 74 % 1016,0 hPa 0,0 l/m 4,8 km/h (1 Bft) O-SO 107 15,0 C 19,8 C
20.07.2019 08:03 19,8 C 74 % 1016,0 hPa 0,0 l/m 1,7 km/h (1 Bft) O-NO 66 15,0 C 19,8 C
20.07.2019 08:02 19,8 C 74 % 1016,0 hPa 0,0 l/m 1,7 km/h (1 Bft) O 82 15,0 C 19,8 C
20.07.2019 08:01 19,8 C 74 % 1015,9 hPa 0,0 l/m 4,8 km/h (1 Bft) O 83 15,0 C 19,8 C
20.07.2019 08:00 19,8 C 74 % 1015,9 hPa 0,0 l/m 4,8 km/h (1 Bft) O 92 15,0 C 19,8 C
20.07.2019 07:59 19,7 C 75 % 1015,9 hPa 0,0 l/m 4,8 km/h (1 Bft) NO 48 15,1 C 19,7 C
20.07.2019 07:58 19,6 C 75 % 1015,8 hPa 0,0 l/m 3,1 km/h (1 Bft) O 99 15,0 C 19,6 C
20.07.2019 07:57 19,6 C 75 % 1015,9 hPa 0,0 l/m 3,1 km/h (1 Bft) SO 124 15,0 C 19,6 C
20.07.2019 07:56 19,5 C 76 % 1015,9 hPa 0,0 l/m 1,7 km/h (1 Bft) O-SO 111 15,2 C 19,5 C
20.07.2019 07:55 19,4 C 76 % 1015,9 hPa 0,0 l/m 1,7 km/h (1 Bft) O-SO 113 15,1 C 19,4 C
20.07.2019 07:54 19,4 C 76 % 1015,9 hPa 0,0 l/m 0,0 km/h (0 Bft) O 84 15,1 C 19,4 C
20.07.2019 07:53 19,3 C 76 % 1015,8 hPa 0,0 l/m 0,0 km/h (0 Bft) O 82 15,0 C 19,3 C
20.07.2019 07:52 19,3 C 76 % 1015,8 hPa 0,0 l/m 1,7 km/h (1 Bft) O-SO 105 15,0 C 19,3 C
20.07.2019 07:51 19,3 C 76 % 1015,9 hPa 0,0 l/m 3,1 km/h (1 Bft) O-SO 115 15,0 C 19,3 C
20.07.2019 07:50 19,3 C 76 % 1015,9 hPa 0,0 l/m 4,8 km/h (1 Bft) O-SO 110 15,0 C 19,3 C
20.07.2019 07:49 19,3 C 76 % 1016,0 hPa 0,0 l/m 1,7 km/h (1 Bft) O-SO 116 15,0 C 19,3 C
20.07.2019 07:48 19,3 C 76 % 1015,9 hPa 0,0 l/m 4,8 km/h (1 Bft) O-SO 112 15,0 C 19,3 C
20.07.2019 07:47 19,3 C 75 % 1016,0 hPa 0,0 l/m 0,0 km/h (0 Bft) O-SO 109 14,8 C 19,3 C
20.07.2019 07:46 19,3 C 76 % 1016,0 hPa 0,0 l/m 4,8 km/h (1 Bft) O 88 15,0 C 19,3 C
20.07.2019 07:45 19,2 C 77 % 1015,9 hPa 0,0 l/m 3,1 km/h (1 Bft) O 86 15,1 C 19,2 C
20.07.2019 07:44 19,1 C 77 % 1015,9 hPa 0,0 l/m 0,0 km/h (0 Bft) O 97 15,0 C 19,1 C
20.07.2019 07:43 19,1 C 76 % 1015,9 hPa 0,0 l/m 0,0 km/h (0 Bft) O 84 14,8 C 19,1 C
20.07.2019 07:42 19,1 C 76 % 1016,0 hPa 0,0 l/m 0,0 km/h (0 Bft) O-NO 72 14,8 C 19,1 C
20.07.2019 07:41 19,1 C 77 % 1015,8 hPa 0,0 l/m 1,7 km/h (1 Bft) O 80 15,0 C 19,1 C
20.07.2019 07:40 19,1 C 77 % 1015,8 hPa 0,0 l/m 1,7 km/h (1 Bft) O-NO 68 15,0 C 19,1 C
20.07.2019 07:39 19,0 C 78 % 1015,9 hPa 0,0 l/m 1,7 km/h (1 Bft) O 92 15,1 C 19,0 C
20.07.2019 07:38 19,0 C 79 % 1015,8 hPa 0,0 l/m 1,7 km/h (1 Bft) SO 146 15,3 C 19,0 C
20.07.2019 07:37 18,9 C 79 % 1015,9 hPa 0,0 l/m 0,0 km/h (0 Bft) O 99 15,2 C 18,9 C
20.07.2019 07:36 18,8 C 79 % 1015,8 hPa 0,0 l/m 0,0 km/h (0 Bft) O-SO 117 15,1 C 18,8 C
20.07.2019 07:35 18,8 C 78 % 1015,8 hPa 0,0 l/m 0,0 km/h (0 Bft) SO 134 14,9 C 18,8 C
20.07.2019 07:34 18,8 C 78 % 1015,9 hPa 0,0 l/m 1,7 km/h (1 Bft) O-SO 113 14,9 C 18,8 C
20.07.2019 07:33 18,8 C 78 % 1015,8 hPa 0,0 l/m 3,1 km/h (1 Bft) O-SO 111 14,9 C 18,8 C
20.07.2019 07:32 18,8 C 78 % 1015,8 hPa 0,0 l/m 1,7 km/h (1 Bft) O-SO 119 14,9 C 18,8 C
20.07.2019 07:31 18,8 C 78 % 1015,8 hPa 0,0 l/m 3,1 km/h (1 Bft) O 89 14,9 C 18,8 C
20.07.2019 07:30 18,8 C 78 % 1015,9 hPa 0,0 l/m 1,7 km/h (1 Bft) O 80 14,9 C 18,8 C
20.07.2019 07:29 18,8 C 79 % 1015,9 hPa 0,0 l/m 0,0 km/h (0 Bft) O-NO 59 15,1 C 18,8 C
20.07.2019 07:28 18,8 C 79 % 1015,8 hPa 0,0 l/m 1,7 km/h (1 Bft) O-SO 105 15,1 C 18,8 C
20.07.2019 07:27 18,8 C 78 % 1015,8 hPa 0,0 l/m 0,0 km/h (0 Bft) O 88 14,9 C 18,8 C
20.07.2019 07:26 18,8 C 78 % 1015,8 hPa 0,0 l/m 3,1 km/h (1 Bft) O 88 14,9 C 18,8 C
20.07.2019 07:25 18,8 C 78 % 1015,8 hPa 0,0 l/m 3,1 km/h (1 Bft) O 84 14,9 C 18,8 C
20.07.2019 07:24 18,8 C 78 % 1015,8 hPa 0,0 l/m 0,0 km/h (0 Bft) O 85 14,9 C 18,8 C
20.07.2019 07:23 18,8 C 78 % 1015,9 hPa 0,0 l/m 1,7 km/h (1 Bft) O 84 14,9 C 18,8 C
20.07.2019 07:22 18,8 C 78 % 1015,8 hPa 0,0 l/m 1,7 km/h (1 Bft) O 88 14,9 C 18,8 C
20.07.2019 07:21 18,8 C 78 % 1015,8 hPa 0,0 l/m 0,0 km/h (0 Bft) O 89 14,9 C 18,8 C
20.07.2019 07:20 18,8 C 78 % 1015,8 hPa 0,0 l/m 0,0 km/h (0 Bft) O 89 14,9 C 18,8 C
20.07.2019 07:19 18,8 C 77 % 1015,9 hPa 0,0 l/m 1,7 km/h (1 Bft) O 93 14,7 C 18,8 C
20.07.2019 07:18 18,8 C 78 % 1015,8 hPa 0,0 l/m 0,0 km/h (0 Bft) O 93 14,9 C 18,8 C
20.07.2019 07:17 18,8 C 78 % 1015,8 hPa 0,0 l/m 1,7 km/h (1 Bft) O 93 14,9 C 18,8 C
20.07.2019 07:16 18,8 C 78 % 1015,8 hPa 0,0 l/m 1,7 km/h (1 Bft) O 96 14,9 C 18,8 C
20.07.2019 07:15 18,8 C 79 % 1015,8 hPa 0,0 l/m 0,0 km/h (0 Bft) SO 131 15,1 C 18,8 C
20.07.2019 07:14 18,8 C 78 % 1015,8 hPa 0,0 l/m 0,0 km/h (0 Bft) SO 131 14,9 C 18,8 C
20.07.2019 07:13 18,8 C 78 % 1015,7 hPa 0,0 l/m 0,0 km/h (0 Bft) SO 128 14,9 C 18,8 C
20.07.2019 07:12 18,8 C 78 % 1015,7 hPa 0,0 l/m 0,0 km/h (0 Bft) SO 128 14,9 C 18,8 C
20.07.2019 07:11 18,8 C 78 % 1015,7 hPa 0,0 l/m 0,0 km/h (0 Bft) O-SO 120 14,9 C 18,8 C
20.07.2019 07:10 18,8 C 78 % 1015,8 hPa 0,0 l/m 0,0 km/h (0 Bft) O-SO 119 14,9 C 18,8 C
20.07.2019 07:09 18,8 C 79 % 1015,8 hPa 0,0 l/m 1,7 km/h (1 Bft) SO 128 15,1 C 18,8 C
20.07.2019 07:08 18,8 C 79 % 1015,8 hPa 0,0 l/m 1,7 km/h (1 Bft) SO 129 15,1 C 18,8 C
20.07.2019 07:07 18,8 C 79 % 1015,7 hPa 0,0 l/m 0,0 km/h (0 Bft) O-SO 122 15,1 C 18,8 C
20.07.2019 07:06 18,8 C 80 % 1015,8 hPa 0,0 l/m 0,0 km/h (0 Bft) O-SO 121 15,3 C 18,8 C
20.07.2019 07:05 18,7 C 80 % 1015,8 hPa 0,0 l/m 0,0 km/h (0 Bft) O-SO 119 15,2 C 18,7 C
20.07.2019 07:04 18,7 C 80 % 1015,8 hPa 0,0 l/m 0,0 km/h (0 Bft) O-SO 120 15,2 C 18,7 C
20.07.2019 07:03 18,6 C 80 % 1015,7 hPa 0,0 l/m 0,0 km/h (0 Bft) O-SO 120 15,1 C 18,6 C
20.07.2019 07:02 18,6 C 81 % 1015,7 hPa 0,0 l/m 0,0 km/h (0 Bft) O-SO 120 15,3 C 18,6 C
20.07.2019 07:01 18,6 C 81 % 1015,7 hPa 0,0 l/m 0,0 km/h (0 Bft) O-SO 120 15,3 C 18,6 C
20.07.2019 07:00 18,6 C 82 % 1015,8 hPa 0,0 l/m 0,0 km/h (0 Bft) O-SO 120 15,5 C 18,6 C
20.07.2019 06:59 18,5 C 82 % 1015,7 hPa 0,0 l/m 0,0 km/h (0 Bft) O-SO 120 15,4 C 18,5 C
20.07.2019 06:58 18,5 C 82 % 1015,7 hPa 0,0 l/m 0,0 km/h (0 Bft) O-SO 121 15,4 C 18,5 C
20.07.2019 06:57 18,5 C 83 % 1015,7 hPa 0,0 l/m 0,0 km/h (0 Bft) O-SO 121 15,6 C 18,5 C
20.07.2019 06:56 18,4 C 83 % 1015,7 hPa 0,0 l/m 0,0 km/h (0 Bft) O-SO 121 15,5 C 18,4 C
20.07.2019 06:55 18,4 C 83 % 1015,8 hPa 0,0 l/m 0,0 km/h (0 Bft) SO 144 15,5 C 18,4 C
20.07.2019 06:54 18,3 C 83 % 1015,8 hPa 0,0 l/m 0,0 km/h (0 Bft) SO 144 15,4 C 18,3 C
20.07.2019 06:53 18,2 C 84 % 1015,7 hPa 0,0 l/m 0,0 km/h (0 Bft) SO 144 15,4 C 18,2 C
20.07.2019 06:52 18,1 C 84 % 1015,8 hPa 0,0 l/m 0,0 km/h (0 Bft) SO 144 15,4 C 18,1 C
20.07.2019 06:51 18,0 C 84 % 1015,8 hPa 0,0 l/m 0,0 km/h (0 Bft) SO 144 15,3 C 18,0 C
20.07.2019 06:50 17,9 C 84 % 1015,8 hPa 0,0 l/m 0,0 km/h (0 Bft) SO 144 15,2 C 17,9 C
20.07.2019 06:49 17,8 C 85 % 1015,8 hPa 0,0 l/m 0,0 km/h (0 Bft) SO 144 15,2 C 17,8 C
20.07.2019 06:48 17,8 C 85 % 1015,8 hPa 0,0 l/m 0,0 km/h (0 Bft) SO 144 15,2 C 17,8 C
20.07.2019 06:47 17,6 C 86 % 1015,8 hPa 0,0 l/m 0,0 km/h (0 Bft) SO 144 15,2 C 17,6 C
20.07.2019 06:46 17,5 C 86 % 1015,8 hPa 0,0 l/m 0,0 km/h (0 Bft) SO 144 15,1 C 17,5 C
20.07.2019 06:45 17,4 C 86 % 1015,7 hPa 0,0 l/m 0,0 km/h (0 Bft) SO 144 15,0 C 17,4 C
20.07.2019 06:44 17,4 C 86 % 1015,8 hPa 0,0 l/m 0,0 km/h (0 Bft) SO 144 15,0 C 17,4 C
20.07.2019 06:43 17,3 C 86 % 1015,7 hPa 0,0 l/m 0,0 km/h (0 Bft) SO 144 14,9 C 17,3 C
20.07.2019 06:42 17,2 C 86 % 1015,7 hPa 0,0 l/m 0,0 km/h (0 Bft) SO 144 14,8 C 17,2 C
20.07.2019 06:41 17,1 C 86 % 1015,8 hPa 0,0 l/m 0,0 km/h (0 Bft) SO 144 14,7 C 17,1 C
20.07.2019 06:40 17,0 C 86 % 1015,7 hPa 0,0 l/m 0,0 km/h (0 Bft) SO 144 14,6 C 17,0 C
20.07.2019 06:39 17,0 C 87 % 1015,8 hPa 0,0 l/m 0,0 km/h (0 Bft) SO 144 14,8 C 17,0 C
20.07.2019 06:38 16,9 C 87 % 1015,7 hPa 0,0 l/m 0,0 km/h (0 Bft) SO 144 14,7 C 16,9 C
20.07.2019 06:37 16,9 C 87 % 1015,8 hPa 0,0 l/m 0,0 km/h (0 Bft) SO 144 14,7 C 16,9 C
20.07.2019 06:36 16,8 C 87 % 1015,7 hPa 0,0 l/m 0,0 km/h (0 Bft) SO 144 14,6 C 16,8 C
20.07.2019 06:35 16,8 C 87 % 1015,8 hPa 0,0 l/m 0,0 km/h (0 Bft) SO 144 14,6 C 16,8 C
20.07.2019 06:34 16,6 C 87 % 1015,7 hPa 0,0 l/m 0,0 km/h (0 Bft) SO 144 14,4 C 16,6 C
20.07.2019 06:33 16,6 C 87 % 1015,8 hPa 0,0 l/m 0,0 km/h (0 Bft) SO 144 14,4 C 16,6 C
20.07.2019 06:32 16,6 C 87 % 1015,7 hPa 0,0 l/m 0,0 km/h (0 Bft) SO 144 14,4 C 16,6 C
20.07.2019 06:31 16,6 C 87 % 1015,7 hPa 0,0 l/m 0,0 km/h (0 Bft) SO 144 14,4 C 16,6 C
20.07.2019 06:30 16,6 C 87 % 1015,7 hPa 0,0 l/m 0,0 km/h (0 Bft) SO 144 14,4 C 16,6 C
20.07.2019 06:29 16,6 C 87 % 1015,6 hPa 0,0 l/m 0,0 km/h (0 Bft) SO 144 14,4 C 16,6 C
20.07.2019 06:28 16,5 C 87 % 1015,7 hPa 0,0 l/m 1,7 km/h (1 Bft) SO 144 14,3 C 16,5 C
20.07.2019 06:27 16,5 C 86 % 1015,8 hPa 0,0 l/m 0,0 km/h (0 Bft) SO 144 14,1 C 16,5 C
20.07.2019 06:26 16,5 C 86 % 1015,7 hPa 0,0 l/m 0,0 km/h (0 Bft) SO 145 14,1 C 16,5 C
20.07.2019 06:25 16,5 C 86 % 1015,7 hPa 0,0 l/m 0,0 km/h (0 Bft) SO 144 14,1 C 16,5 C
20.07.2019 06:24 16,6 C 86 % 1015,6 hPa 0,0 l/m 0,0 km/h (0 Bft) SO 143 14,2 C 16,6 C
20.07.2019 06:23 16,6 C 86 % 1015,7 hPa 0,0 l/m 0,0 km/h (0 Bft) SO 143 14,2 C 16,6 C
20.07.2019 06:22 16,6 C 86 % 1015,7 hPa 0,0 l/m 0,0 km/h (0 Bft) SO 143 14,2 C 16,6 C
20.07.2019 06:21 16,6 C 86 % 1015,7 hPa 0,0 l/m 0,0 km/h (0 Bft) SO 143 14,2 C 16,6 C
20.07.2019 06:20 16,6 C 86 % 1015,6 hPa 0,0 l/m 0,0 km/h (0 Bft) SO 143 14,2 C 16,6 C
20.07.2019 06:19 16,7 C 86 % 1015,5 hPa 0,0 l/m 0,0 km/h (0 Bft) SO 143 14,3 C 16,7 C
20.07.2019 06:18 16,8 C 86 % 1015,6 hPa 0,0 l/m 1,7 km/h (1 Bft) SO 143 14,4 C 16,8 C
20.07.2019 06:17 16,8 C 86 % 1015,7 hPa 0,0 l/m 3,1 km/h (1 Bft) SO 141 14,4 C 16,8 C
20.07.2019 06:16 16,8 C 86 % 1015,6 hPa 0,0 l/m 0,0 km/h (0 Bft) SO 138 14,4 C 16,8 C
20.07.2019 06:15 16,7 C 86 % 1015,6 hPa 0,0 l/m 0,0 km/h (0 Bft) S-SW 207 14,3 C 16,7 C
20.07.2019 06:14 16,7 C 86 % 1015,6 hPa 0,0 l/m 0,0 km/h (0 Bft) S-SW 211 14,3 C 16,7 C
20.07.2019 06:13 16,6 C 86 % 1015,6 hPa 0,0 l/m 0,0 km/h (0 Bft) S-SW 211 14,2 C 16,6 C
20.07.2019 06:12 16,6 C 86 % 1015,7 hPa 0,0 l/m 0,0 km/h (0 Bft) S-SW 211 14,2 C 16,6 C
20.07.2019 06:11 16,6 C 87 % 1015,6 hPa 0,0 l/m 0,0 km/h (0 Bft) S-SW 211 14,4 C 16,6 C
20.07.2019 06:10 16,5 C 87 % 1015,6 hPa 0,0 l/m 0,0 km/h (0 Bft) S-SW 211 14,3 C 16,5 C
20.07.2019 06:09 16,5 C 87 % 1015,6 hPa 0,0 l/m 0,0 km/h (0 Bft) S-SW 211 14,3 C 16,5 C
20.07.2019 06:08 16,5 C 87 % 1015,6 hPa 0,0 l/m 0,0 km/h (0 Bft) S-SW 211 14,3 C 16,5 C
20.07.2019 06:07 16,5 C 87 % 1015,6 hPa 0,0 l/m 0,0 km/h (0 Bft) S-SW 211 14,3 C 16,5 C
20.07.2019 06:06 16,5 C 87 % 1015,5 hPa 0,0 l/m 0,0 km/h (0 Bft) S-SW 211 14,3 C 16,5 C
20.07.2019 06:05 16,5 C 87 % 1015,6 hPa 0,0 l/m 0,0 km/h (0 Bft) S-SW 211 14,3 C 16,5 C
20.07.2019 06:04 16,5 C 87 % 1015,7 hPa 0,0 l/m 0,0 km/h (0 Bft) S-SW 211 14,3 C 16,5 C
20.07.2019 06:03 16,4 C 88 % 1015,6 hPa 0,0 l/m 0,0 km/h (0 Bft) S-SW 211 14,4 C 16,4 C
20.07.2019 06:02 16,4 C 88 % 1015,6 hPa 0,0 l/m 0,0 km/h (0 Bft) S-SW 211 14,4 C 16,4 C
20.07.2019 06:01 16,4 C 88 % 1015,6 hPa 0,0 l/m 0,0 km/h (0 Bft) S-SW 211 14,4 C 16,4 C
20.07.2019 06:00 16,4 C 88 % 1015,6 hPa 0,0 l/m 0,0 km/h (0 Bft) S-SW 211 14,4 C 16,4 C
20.07.2019 05:59 16,3 C 88 % 1015,6 hPa 0,0 l/m 0,0 km/h (0 Bft) S-SW 211 14,3 C 16,3 C
20.07.2019 05:58 16,3 C 88 % 1015,6 hPa 0,0 l/m 0,0 km/h (0 Bft) S-SW 211 14,3 C 16,3 C
20.07.2019 05:57 16,3 C 87 % 1015,6 hPa 0,0 l/m 0,0 km/h (0 Bft) S-SW 211 14,1 C 16,3 C
20.07.2019 05:56 16,3 C 87 % 1015,5 hPa 0,0 l/m 0,0 km/h (0 Bft) S-SW 211 14,1 C 16,3 C
20.07.2019 05:55 16,2 C 87 % 1015,5 hPa 0,0 l/m 0,0 km/h (0 Bft) S-SW 211 14,0 C 16,2 C
20.07.2019 05:54 16,2 C 87 % 1015,5 hPa 0,0 l/m 0,0 km/h (0 Bft) S-SW 211 14,0 C 16,2 C
20.07.2019 05:53 16,2 C 87 % 1015,5 hPa 0,0 l/m 0,0 km/h (0 Bft) S-SW 211 14,0 C 16,2 C
20.07.2019 05:52 16,2 C 88 % 1015,5 hPa 0,0 l/m 0,0 km/h (0 Bft) S-SW 211 14,2 C 16,2 C
20.07.2019 05:51 16,2 C 88 % 1015,6 hPa 0,0 l/m 0,0 km/h (0 Bft) S-SW 209 14,2 C 16,2 C
20.07.2019 05:50 16,1 C 88 % 1015,5 hPa 0,0 l/m 0,0 km/h (0 Bft) S-SW 207 14,1 C 16,1 C
20.07.2019 05:49 16,1 C 88 % 1015,5 hPa 0,0 l/m 0,0 km/h (0 Bft) S-SW 207 14,1 C 16,1 C
20.07.2019 05:48 16,1 C 88 % 1015,5 hPa 0,0 l/m 0,0 km/h (0 Bft) S-SW 207 14,1 C 16,1 C
20.07.2019 05:47 16,1 C 88 % 1015,4 hPa 0,0 l/m 0,0 km/h (0 Bft) S-SW 207 14,1 C 16,1 C
20.07.2019 05:46 16,1 C 88 % 1015,5 hPa 0,0 l/m 0,0 km/h (0 Bft) S-SW 207 14,1 C 16,1 C
20.07.2019 05:45 16,1 C 88 % 1015,5 hPa 0,0 l/m 0,0 km/h (0 Bft) S-SW 207 14,1 C 16,1 C
20.07.2019 05:44 16,0 C 88 % 1015,5 hPa 0,0 l/m 0,0 km/h (0 Bft) S-SW 207 14,0 C 16,0 C
20.07.2019 05:43 16,0 C 88 % 1015,5 hPa 0,0 l/m 0,0 km/h (0 Bft) S-SW 207 14,0 C 16,0 C
20.07.2019 05:42 16,0 C 88 % 1015,5 hPa 0,0 l/m 0,0 km/h (0 Bft) S-SW 207 14,0 C 16,0 C
20.07.2019 05:41 16,0 C 88 % 1015,5 hPa 0,0 l/m 0,0 km/h (0 Bft) S-SW 207 14,0 C 16,0 C
20.07.2019 05:40 16,0 C 88 % 1015,4 hPa 0,0 l/m 0,0 km/h (0 Bft) S-SW 207 14,0 C 16,0 C
20.07.2019 05:39 16,0 C 88 % 1015,4 hPa 0,0 l/m 0,0 km/h (0 Bft) S-SW 207 14,0 C 16,0 C
20.07.2019 05:38 16,0 C 88 % 1015,4 hPa 0,0 l/m 0,0 km/h (0 Bft) S-SW 207 14,0 C 16,0 C
20.07.2019 05:37 16,0 C 88 % 1015,5 hPa 0,0 l/m 0,0 km/h (0 Bft) S-SW 207 14,0 C 16,0 C
20.07.2019 05:36 16,0 C 88 % 1015,5 hPa 0,0 l/m 0,0 km/h (0 Bft) S-SW 207 14,0 C 16,0 C
20.07.2019 05:35 16,0 C 88 % 1015,5 hPa 0,0 l/m 0,0 km/h (0 Bft) S-SW 207 14,0 C 16,0 C
20.07.2019 05:34 16,0 C 88 % 1015,5 hPa 0,0 l/m 0,0 km/h (0 Bft) S-SW 207 14,0 C 16,0 C
20.07.2019 05:33 16,1 C 89 % 1015,5 hPa 0,0 l/m 0,0 km/h (0 Bft) S-SW 207 14,3 C 16,1 C
20.07.2019 05:32 16,1 C 89 % 1015,5 hPa 0,0 l/m 0,0 km/h (0 Bft) S-SW 207 14,3 C 16,1 C
20.07.2019 05:31 16,1 C 89 % 1015,5 hPa 0,0 l/m 0,0 km/h (0 Bft) S-SW 207 14,3 C 16,1 C
20.07.2019 05:30 16,1 C 89 % 1015,5 hPa 0,0 l/m 0,0 km/h (0 Bft) S-SW 207 14,3 C 16,1 C
20.07.2019 05:29 16,1 C 89 % 1015,4 hPa 0,0 l/m 0,0 km/h (0 Bft) S-SW 207 14,3 C 16,1 C
20.07.2019 05:28 16,0 C 89 % 1015,5 hPa 0,0 l/m 0,0 km/h (0 Bft) S-SW 207 14,2 C 16,0 C
20.07.2019 05:27 16,0 C 88 % 1015,5 hPa 0,0 l/m 0,0 km/h (0 Bft) S-SW 207 14,0 C 16,0 C
20.07.2019 05:26 16,0 C 88 % 1015,5 hPa 0,0 l/m 0,0 km/h (0 Bft) S-SW 207 14,0 C 16,0 C
20.07.2019 05:25 16,1 C 88 % 1015,5 hPa 0,0 l/m 0,0 km/h (0 Bft) S-SW 207 14,1 C 16,1 C
20.07.2019 05:24 16,1 C 88 % 1015,5 hPa 0,0 l/m 0,0 km/h (0 Bft) S-SW 207 14,1 C 16,1 C
20.07.2019 05:23 16,1 C 88 % 1015,5 hPa 0,0 l/m 0,0 km/h (0 Bft) S-SW 207 14,1 C 16,1 C
20.07.2019 05:22 16,1 C 88 % 1015,5 hPa 0,0 l/m 0,0 km/h (0 Bft) S-SW 207 14,1 C 16,1 C
20.07.2019 05:21 16,1 C 87 % 1015,5 hPa 0,0 l/m 0,0 km/h (0 Bft) S-SW 207 13,9 C 16,1 C
20.07.2019 05:20 16,2 C 87 % 1015,5 hPa 0,0 l/m 0,0 km/h (0 Bft) S-SW 207 14,0 C 16,2 C
20.07.2019 05:19 16,2 C 87 % 1015,5 hPa 0,0 l/m 0,0 km/h (0 Bft) S-SW 207 14,0 C 16,2 C
20.07.2019 05:18 16,2 C 87 % 1015,6 hPa 0,0 l/m 0,0 km/h (0 Bft) S-SW 207 14,0 C 16,2 C
20.07.2019 05:17 16,3 C 86 % 1015,5 hPa 0,0 l/m 0,0 km/h (0 Bft) S-SW 207 14,0 C 16,3 C
20.07.2019 05:16 16,3 C 86 % 1015,5 hPa 0,0 l/m 0,0 km/h (0 Bft) S-SW 204 14,0 C 16,3 C
20.07.2019 05:15 16,3 C 85 % 1015,5 hPa 0,0 l/m 1,7 km/h (1 Bft) SW 215 13,8 C 16,3 C
20.07.2019 05:14 16,4 C 85 % 1015,5 hPa 0,0 l/m 0,0 km/h (0 Bft) SW 215 13,9 C 16,4 C
20.07.2019 05:13 16,4 C 85 % 1015,5 hPa 0,0 l/m 0,0 km/h (0 Bft) S-SW 213 13,9 C 16,4 C
20.07.2019 05:12 16,5 C 84 % 1015,5 hPa 0,0 l/m 0,0 km/h (0 Bft) SW 218 13,8 C 16,5 C
20.07.2019 05:11 16,6 C 83 % 1015,5 hPa 0,0 l/m 0,0 km/h (0 Bft) SW 218 13,7 C 16,6 C
20.07.2019 05:10 16,7 C 83 % 1015,5 hPa 0,0 l/m 0,0 km/h (0 Bft) SW 217 13,8 C 16,7 C
20.07.2019 05:09 16,8 C 82 % 1015,5 hPa 0,0 l/m 1,7 km/h (1 Bft) SW 214 13,7 C 16,8 C
20.07.2019 05:08 16,9 C 82 % 1015,5 hPa 0,0 l/m 1,7 km/h (1 Bft) S-SW 212 13,8 C 16,9 C
20.07.2019 05:07 17,0 C 82 % 1015,5 hPa 0,0 l/m 0,0 km/h (0 Bft) S-SW 212 13,9 C 17,0 C
20.07.2019 05:06 17,1 C 81 % 1015,5 hPa 0,0 l/m 0,0 km/h (0 Bft) S-SW 213 13,8 C 17,1 C
20.07.2019 05:04 17,1 C 81 % 1015,5 hPa 0,0 l/m 0,0 km/h (0 Bft) N-NO 22 13,8 C 17,1 C
20.07.2019 05:03 17,1 C 81 % 1015,5 hPa 0,0 l/m 0,0 km/h (0 Bft) N-NO 23 13,8 C 17,1 C
20.07.2019 05:02 17,1 C 81 % 1015,5 hPa 0,0 l/m 0,0 km/h (0 Bft) N-NO 23 13,8 C 17,1 C
20.07.2019 05:01 17,1 C 81 % 1015,5 hPa 0,0 l/m 0,0 km/h (0 Bft) N-NO 23 13,8 C 17,1 C
20.07.2019 05:00 17,1 C 81 % 1015,5 hPa 0,0 l/m 0,0 km/h (0 Bft) N-NO 23 13,8 C 17,1 C
20.07.2019 04:59 17,1 C 81 % 1015,5 hPa 0,0 l/m 0,0 km/h (0 Bft) N-NO 22 13,8 C 17,1 C
20.07.2019 04:58 17,1 C 81 % 1015,5 hPa 0,0 l/m 0,0 km/h (0 Bft) N-NO 30 13,8 C 17,1 C
20.07.2019 04:57 17,1 C 81 % 1015,5 hPa 0,0 l/m 0,0 km/h (0 Bft) N-NO 25 13,8 C 17,1 C
20.07.2019 04:56 17,1 C 81 % 1015,5 hPa 0,0 l/m 0,0 km/h (0 Bft) N-NO 19 13,8 C 17,1 C
20.07.2019 04:55 17,1 C 81 % 1015,5 hPa 0,0 l/m 0,0 km/h (0 Bft) N-NO 20 13,8 C 17,1 C
20.07.2019 04:54 17,1 C 81 % 1015,4 hPa 0,0 l/m 0,0 km/h (0 Bft) N-NO 19 13,8 C 17,1 C
20.07.2019 04:53 17,1 C 81 % 1015,5 hPa 0,0 l/m 0,0 km/h (0 Bft) N-NO 16 13,8 C 17,1 C
20.07.2019 04:52 17,1 C 81 % 1015,5 hPa 0,0 l/m 0,0 km/h (0 Bft) S-SO 154 13,8 C 17,1 C
20.07.2019 04:51 17,1 C 82 % 1015,6 hPa 0,0 l/m 0,0 km/h (0 Bft) S-SO 156 14,0 C 17,1 C
20.07.2019 04:50 17,1 C 82 % 1015,6 hPa 0,0 l/m 0,0 km/h (0 Bft) S-SO 156 14,0 C 17,1 C
20.07.2019 04:49 17,1 C 82 % 1015,5 hPa 0,0 l/m 0,0 km/h (0 Bft) S-SO 156 14,0 C 17,1 C
20.07.2019 04:48 17,1 C 82 % 1015,5 hPa 0,0 l/m 0,0 km/h (0 Bft) S-SO 156 14,0 C 17,1 C
20.07.2019 04:47 17,1 C 82 % 1015,6 hPa 0,0 l/m 0,0 km/h (0 Bft) S-SO 156 14,0 C 17,1 C
20.07.2019 04:46 17,1 C 82 % 1015,5 hPa 0,0 l/m 0,0 km/h (0 Bft) S-SO 156 14,0 C 17,1 C
20.07.2019 04:45 17,1 C 82 % 1015,5 hPa 0,0 l/m 0,0 km/h (0 Bft) S-SO 156 14,0 C 17,1 C
20.07.2019 04:44 17,1 C 82 % 1015,5 hPa 0,0 l/m 0,0 km/h (0 Bft) S-SO 156 14,0 C 17,1 C
20.07.2019 04:43 17,1 C 82 % 1015,6 hPa 0,0 l/m 0,0 km/h (0 Bft) S-SO 156 14,0 C 17,1 C
20.07.2019 04:42 17,1 C 82 % 1015,6 hPa 0,0 l/m 0,0 km/h (0 Bft) S-SO 156 14,0 C 17,1 C
20.07.2019 04:41 17,1 C 82 % 1015,6 hPa 0,0 l/m 0,0 km/h (0 Bft) S-SO 156 14,0 C 17,1 C
20.07.2019 04:40 17,1 C 82 % 1015,6 hPa 0,0 l/m 0,0 km/h (0 Bft) S-SO 156 14,0 C 17,1 C
20.07.2019 04:39 17,1 C 82 % 1015,6 hPa 0,0 l/m 0,0 km/h (0 Bft) S-SO 156 14,0 C 17,1 C
20.07.2019 04:38 17,1 C 82 % 1015,5 hPa 0,0 l/m 0,0 km/h (0 Bft) S-SO 156 14,0 C 17,1 C
20.07.2019 04:37 17,1 C 82 % 1015,5 hPa 0,0 l/m 0,0 km/h (0 Bft) S-SO 156 14,0 C 17,1 C
20.07.2019 04:36 17,0 C 82 % 1015,6 hPa 0,0 l/m 0,0 km/h (0 Bft) S-SO 156 13,9 C 17,0 C
20.07.2019 04:35 17,0 C 83 % 1015,5 hPa 0,0 l/m 0,0 km/h (0 Bft) S-SO 156 14,1 C 17,0 C
20.07.2019 04:34 17,0 C 83 % 1015,5 hPa 0,0 l/m 0,0 km/h (0 Bft) S-SO 156 14,1 C 17,0 C
20.07.2019 04:33 17,0 C 83 % 1015,4 hPa 0,0 l/m 0,0 km/h (0 Bft) S-SO 156 14,1 C 17,0 C
20.07.2019 04:32 17,0 C 83 % 1015,5 hPa 0,0 l/m 0,0 km/h (0 Bft) S-SO 156 14,1 C 17,0 C
20.07.2019 04:31 17,0 C 83 % 1015,5 hPa 0,0 l/m 0,0 km/h (0 Bft) S-SO 156 14,1 C 17,0 C
20.07.2019 04:30 17,0 C 83 % 1015,4 hPa 0,0 l/m 0,0 km/h (0 Bft) S-SO 156 14,1 C 17,0 C
20.07.2019 04:29 17,0 C 83 % 1015,4 hPa 0,0 l/m 0,0 km/h (0 Bft) S-SO 156 14,1 C 17,0 C
20.07.2019 04:28 16,9 C 83 % 1015,4 hPa 0,0 l/m 0,0 km/h (0 Bft) S-SO 156 14,0 C 16,9 C
20.07.2019 04:27 16,9 C 83 % 1015,5 hPa 0,0 l/m 0,0 km/h (0 Bft) S-SO 156 14,0 C 16,9 C
20.07.2019 04:26 16,9 C 83 % 1015,5 hPa 0,0 l/m 0,0 km/h (0 Bft) S-SO 156 14,0 C 16,9 C
20.07.2019 04:25 16,9 C 84 % 1015,5 hPa 0,0 l/m 0,0 km/h (0 Bft) S-SO 156 14,2 C 16,9 C
20.07.2019 04:24 16,9 C 83 % 1015,5 hPa 0,0 l/m 0,0 km/h (0 Bft) S-SO 156 14,0 C 16,9 C
20.07.2019 04:23 16,9 C 83 % 1015,5 hPa 0,0 l/m 0,0 km/h (0 Bft) S-SO 156 14,0 C 16,9 C
20.07.2019 04:22 16,9 C 83 % 1015,4 hPa 0,0 l/m 0,0 km/h (0 Bft) S-SO 156 14,0 C 16,9 C
20.07.2019 04:21 16,9 C 83 % 1015,5 hPa 0,0 l/m 0,0 km/h (0 Bft) S-SO 156 14,0 C 16,9 C
20.07.2019 04:20 16,9 C 83 % 1015,5 hPa 0,0 l/m 0,0 km/h (0 Bft) S-SO 156 14,0 C 16,9 C
20.07.2019 04:19 16,9 C 82 % 1015,5 hPa 0,0 l/m 0,0 km/h (0 Bft) S-SO 156 13,8 C 16,9 C
20.07.2019 04:18 16,9 C 82 % 1015,5 hPa 0,0 l/m 0,0 km/h (0 Bft) S-SO 156 13,8 C 16,9 C
20.07.2019 04:17 17,0 C 82 % 1015,4 hPa 0,0 l/m 0,0 km/h (0 Bft) S-SO 156 13,9 C 17,0 C
20.07.2019 04:16 17,0 C 82 % 1015,5 hPa 0,0 l/m 0,0 km/h (0 Bft) S-SO 156 13,9 C 17,0 C
20.07.2019 04:15 17,0 C 83 % 1015,5 hPa 0,0 l/m 0,0 km/h (0 Bft) S-SO 156 14,1 C 17,0 C
20.07.2019 04:14 17,0 C 83 % 1015,4 hPa 0,0 l/m 0,0 km/h (0 Bft) S-SO 156 14,1 C 17,0 C
20.07.2019 04:13 17,0 C 83 % 1015,4 hPa 0,0 l/m 0,0 km/h (0 Bft) S-SO 156 14,1 C 17,0 C
20.07.2019 04:12 17,0 C 83 % 1015,4 hPa 0,0 l/m 0,0 km/h (0 Bft) S-SO 156 14,1 C 17,0 C
20.07.2019 04:11 17,0 C 83 % 1015,5 hPa 0,0 l/m 0,0 km/h (0 Bft) S-SO 156 14,1 C 17,0 C
20.07.2019 04:10 17,0 C 82 % 1015,5 hPa 0,0 l/m 0,0 km/h (0 Bft) S-SO 156 13,9 C 17,0 C
20.07.2019 04:09 17,0 C 82 % 1015,4 hPa 0,0 l/m 0,0 km/h (0 Bft) S-SO 156 13,9 C 17,0 C
20.07.2019 04:08 17,1 C 82 % 1015,4 hPa 0,0 l/m 0,0 km/h (0 Bft) S-SO 156 14,0 C 17,1 C
20.07.2019 04:07 17,1 C 82 % 1015,4 hPa 0,0 l/m 0,0 km/h (0 Bft) S-SO 156 14,0 C 17,1 C
20.07.2019 04:06 17,1 C 82 % 1015,5 hPa 0,0 l/m 0,0 km/h (0 Bft) S-SO 156 14,0 C 17,1 C
20.07.2019 04:05 17,1 C 82 % 1015,4 hPa 0,0 l/m 0,0 km/h (0 Bft) S-SO 156 14,0 C 17,1 C
20.07.2019 04:04 17,2 C 82 % 1015,4 hPa 0,0 l/m 0,0 km/h (0 Bft) S-SO 156 14,1 C 17,2 C
20.07.2019 04:03 17,3 C 81 % 1015,5 hPa 0,0 l/m 0,0 km/h (0 Bft) S-SO 156 14,0 C 17,3 C
20.07.2019 04:02 17,3 C 81 % 1015,4 hPa 0,0 l/m 0,0 km/h (0 Bft) S-SO 156 14,0 C 17,3 C
20.07.2019 04:01 17,3 C 81 % 1015,4 hPa 0,0 l/m 0,0 km/h (0 Bft) S-SO 156 14,0 C 17,3 C
20.07.2019 04:00 17,4 C 81 % 1015,4 hPa 0,0 l/m 0,0 km/h (0 Bft) S-SO 156 14,1 C 17,4 C
20.07.2019 03:59 17,4 C 80 % 1015,4 hPa 0,0 l/m 0,0 km/h (0 Bft) S-SO 156 13,9 C 17,4 C
20.07.2019 03:58 17,5 C 80 % 1015,4 hPa 0,0 l/m 0,0 km/h (0 Bft) S-SO 156 14,0 C 17,5 C
20.07.2019 03:57 17,5 C 80 % 1015,4 hPa 0,0 l/m 0,0 km/h (0 Bft) S-SO 156 14,0 C 17,5 C
20.07.2019 03:56 17,6 C 80 % 1015,4 hPa 0,0 l/m 0,0 km/h (0 Bft) S-SO 156 14,1 C 17,6 C
20.07.2019 03:55 17,6 C 80 % 1015,4 hPa 0,0 l/m 0,0 km/h (0 Bft) S-SO 156 14,1 C 17,6 C
20.07.2019 03:54 17,6 C 80 % 1015,4 hPa 0,0 l/m 0,0 km/h (0 Bft) S-SO 156 14,1 C 17,6 C
20.07.2019 03:53 17,7 C 80 % 1015,4 hPa 0,0 l/m 0,0 km/h (0 Bft) S-SO 156 14,2 C 17,7 C
20.07.2019 03:52 17,7 C 80 % 1015,4 hPa 0,0 l/m 0,0 km/h (0 Bft) S-SO 156 14,2 C 17,7 C
20.07.2019 03:51 17,8 C 80 % 1015,4 hPa 0,0 l/m 0,0 km/h (0 Bft) S-SO 156 14,3 C 17,8 C
20.07.2019 03:50 17,8 C 80 % 1015,4 hPa 0,0 l/m 0,0 km/h (0 Bft) S-SO 156 14,3 C 17,8 C
20.07.2019 03:49 17,8 C 80 % 1015,4 hPa 0,0 l/m 0,0 km/h (0 Bft) S-SO 156 14,3 C 17,8 C
20.07.2019 03:48 17,8 C 80 % 1015,4 hPa 0,0 l/m 0,0 km/h (0 Bft) S-SO 156 14,3 C 17,8 C
20.07.2019 03:47 17,8 C 80 % 1015,4 hPa 0,0 l/m 0,0 km/h (0 Bft) S-SO 156 14,3 C 17,8 C
20.07.2019 03:46 17,8 C 80 % 1015,5 hPa 0,0 l/m 0,0 km/h (0 Bft) S-SO 156 14,3 C 17,8 C
20.07.2019 03:45 17,8 C 80 % 1015,4 hPa 0,0 l/m 0,0 km/h (0 Bft) S-SO 156 14,3 C 17,8 C
20.07.2019 03:44 17,8 C 81 % 1015,5 hPa 0,0 l/m 0,0 km/h (0 Bft) S-SO 156 14,5 C 17,8 C
20.07.2019 03:43 17,8 C 80 % 1015,5 hPa 0,0 l/m 0,0 km/h (0 Bft) S-SO 156 14,3 C 17,8 C
20.07.2019 03:42 17,8 C 81 % 1015,4 hPa 0,0 l/m 0,0 km/h (0 Bft) S-SO 156 14,5 C 17,8 C
20.07.2019 03:41 17,8 C 81 % 1015,4 hPa 0,0 l/m 0,0 km/h (0 Bft) S-SO 156 14,5 C 17,8 C
20.07.2019 03:40 17,8 C 80 % 1015,4 hPa 0,0 l/m 0,0 km/h (0 Bft) S-SO 156 14,3 C 17,8 C
20.07.2019 03:39 17,8 C 80 % 1015,3 hPa 0,0 l/m 0,0 km/h (0 Bft) S-SO 156 14,3 C 17,8 C
20.07.2019 03:38 17,9 C 80 % 1015,4 hPa 0,0 l/m 0,0 km/h (0 Bft) S-SO 156 14,4 C 17,9 C
20.07.2019 03:37 17,9 C 80 % 1015,3 hPa 0,0 l/m 0,0 km/h (0 Bft) S-SO 156 14,4 C 17,9 C
20.07.2019 03:36 17,9 C 80 % 1015,3 hPa 0,0 l/m 0,0 km/h (0 Bft) S-SO 156 14,4 C 17,9 C
20.07.2019 03:35 17,9 C 80 % 1015,4 hPa 0,0 l/m 0,0 km/h (0 Bft) S-SO 156 14,4 C 17,9 C
20.07.2019 03:34 17,9 C 80 % 1015,4 hPa 0,0 l/m 0,0 km/h (0 Bft) S-SO 156 14,4 C 17,9 C
20.07.2019 03:33 17,9 C 80 % 1015,3 hPa 0,0 l/m 0,0 km/h (0 Bft) S-SO 156 14,4 C 17,9 C
20.07.2019 03:32 17,9 C 80 % 1015,4 hPa 0,0 l/m 0,0 km/h (0 Bft) S-SO 156 14,4 C 17,9 C
20.07.2019 03:31 17,9 C 80 % 1015,4 hPa 0,0 l/m 0,0 km/h (0 Bft) S-SO 156 14,4 C 17,9 C
20.07.2019 03:30 17,9 C 80 % 1015,3 hPa 0,0 l/m 0,0 km/h (0 Bft) S-SO 156 14,4 C 17,9 C
20.07.2019 03:29 18,0 C 79 % 1015,3 hPa 0,0 l/m 0,0 km/h (0 Bft) S-SO 156 14,3 C 18,0 C
20.07.2019 03:28 18,0 C 79 % 1015,4 hPa 0,0 l/m 0,0 km/h (0 Bft) S-SO 156 14,3 C 18,0 C
20.07.2019 03:27 18,0 C 79 % 1015,4 hPa 0,0 l/m 0,0 km/h (0 Bft) S-SO 156 14,3 C 18,0 C
20.07.2019 03:26 18,1 C 79 % 1015,4 hPa 0,0 l/m 0,0 km/h (0 Bft) S-SO 156 14,4 C 18,1 C
20.07.2019 03:25 18,1 C 79 % 1015,4 hPa 0,0 l/m 0,0 km/h (0 Bft) S-SO 156 14,4 C 18,1 C
20.07.2019 03:24 18,1 C 79 % 1015,4 hPa 0,0 l/m 0,0 km/h (0 Bft) S-SO 156 14,4 C 18,1 C
20.07.2019 03:23 18,1 C 78 % 1015,4 hPa 0,0 l/m 0,0 km/h (0 Bft) S-SO 153 14,2 C 18,1 C
20.07.2019 03:22 18,2 C 78 % 1015,4 hPa 0,0 l/m 0,0 km/h (0 Bft) S-SO 148 14,3 C 18,2 C
20.07.2019 03:21 18,2 C 78 % 1015,5 hPa 0,0 l/m 0,0 km/h (0 Bft) S-SO 148 14,3 C 18,2 C
20.07.2019 03:20 18,2 C 78 % 1015,4 hPa 0,0 l/m 0,0 km/h (0 Bft) S-SO 148 14,3 C 18,2 C
20.07.2019 03:19 18,3 C 78 % 1015,4 hPa 0,0 l/m 0,0 km/h (0 Bft) S-SO 148 14,4 C 18,3 C
20.07.2019 03:18 18,3 C 78 % 1015,5 hPa 0,0 l/m 0,0 km/h (0 Bft) S-SO 148 14,4 C 18,3 C
20.07.2019 03:17 18,4 C 77 % 1015,5 hPa 0,0 l/m 0,0 km/h (0 Bft) S-SO 148 14,3 C 18,4 C
20.07.2019 03:16 18,4 C 77 % 1015,4 hPa 0,0 l/m 0,0 km/h (0 Bft) S-SO 149 14,3 C 18,4 C
20.07.2019 03:15 18,4 C 77 % 1015,5 hPa 0,0 l/m 0,0 km/h (0 Bft) S-SO 148 14,3 C 18,4 C
20.07.2019 03:14 18,5 C 77 % 1015,5 hPa 0,0 l/m 0,0 km/h (0 Bft) S-SO 148 14,4 C 18,5 C
20.07.2019 03:13 18,5 C 77 % 1015,5 hPa 0,0 l/m 0,0 km/h (0 Bft) S-SO 149 14,4 C 18,5 C
20.07.2019 03:12 18,6 C 77 % 1015,4 hPa 0,0 l/m 0,0 km/h (0 Bft) S-SO 149 14,5 C 18,6 C
20.07.2019 03:11 18,6 C 77 % 1015,4 hPa 0,0 l/m 0,0 km/h (0 Bft) S-SO 148 14,5 C 18,6 C
20.07.2019 03:10 18,7 C 76 % 1015,4 hPa 0,0 l/m 0,0 km/h (0 Bft) S-SO 148 14,4 C 18,7 C
20.07.2019 03:08 18,8 C 76 % 1015,4 hPa 0,0 l/m 0,0 km/h (0 Bft) S-SO 148 14,5 C 18,8 C
20.07.2019 03:07 18,8 C 76 % 1015,4 hPa 0,0 l/m 0,0 km/h (0 Bft) S-SO 148 14,5 C 18,8 C
20.07.2019 03:06 18,9 C 76 % 1015,4 hPa 0,0 l/m 0,0 km/h (0 Bft) S-SO 148 14,6 C 18,9 C
20.07.2019 03:05 18,9 C 76 % 1015,3 hPa 0,0 l/m 0,0 km/h (0 Bft) S-SO 148 14,6 C 18,9 C
20.07.2019 03:04 19,0 C 75 % 1015,3 hPa 0,0 l/m 0,0 km/h (0 Bft) S-SO 148 14,5 C 19,0 C
20.07.2019 03:03 19,0 C 75 % 1015,4 hPa 0,0 l/m 0,0 km/h (0 Bft) S-SO 148 14,5 C 19,0 C
20.07.2019 03:02 19,0 C 75 % 1015,3 hPa 0,0 l/m 0,0 km/h (0 Bft) S-SO 149 14,5 C 19,0 C
20.07.2019 03:01 19,1 C 74 % 1015,3 hPa 0,0 l/m 0,0 km/h (0 Bft) S-SO 148 14,4 C 19,1 C
20.07.2019 03:00 19,1 C 74 % 1015,3 hPa 0,0 l/m 0,0 km/h (0 Bft) S-SO 149 14,4 C 19,1 C
20.07.2019 02:59 19,1 C 74 % 1015,3 hPa 0,0 l/m 0,0 km/h (0 Bft) S-SO 149 14,4 C 19,1 C
20.07.2019 02:58 19,2 C 74 % 1015,3 hPa 0,0 l/m 0,0 km/h (0 Bft) S-SO 149 14,4 C 19,2 C
20.07.2019 02:57 19,3 C 73 % 1015,3 hPa 0,0 l/m 0,0 km/h (0 Bft) S-SO 149 14,3 C 19,3 C
20.07.2019 02:56 19,3 C 73 % 1015,4 hPa 0,0 l/m 1,7 km/h (1 Bft) S-SO 148 14,3 C 19,3 C
20.07.2019 02:54 19,4 C 73 % 1015,3 hPa 0,0 l/m 1,7 km/h (1 Bft) SO 144 14,4 C 19,4 C
20.07.2019 02:53 19,4 C 73 % 1015,4 hPa 0,0 l/m 1,7 km/h (1 Bft) SO 144 14,4 C 19,4 C
20.07.2019 02:52 19,4 C 73 % 1015,4 hPa 0,0 l/m 0,0 km/h (0 Bft) SO 143 14,4 C 19,4 C
20.07.2019 02:51 19,5 C 73 % 1015,4 hPa 0,0 l/m 1,7 km/h (1 Bft) SO 143 14,5 C 19,5 C
20.07.2019 02:50 19,5 C 73 % 1015,4 hPa 0,0 l/m 1,7 km/h (1 Bft) SO 136 14,5 C 19,5 C
20.07.2019 02:49 19,5 C 73 % 1015,5 hPa 0,0 l/m 0,0 km/h (0 Bft) O-SO 107 14,5 C 19,5 C
20.07.2019 02:48 19,5 C 73 % 1015,4 hPa 0,0 l/m 1,7 km/h (1 Bft) O-SO 107 14,5 C 19,5 C
20.07.2019 02:47 19,5 C 73 % 1015,5 hPa 0,0 l/m 1,7 km/h (1 Bft) O-SO 103 14,5 C 19,5 C
20.07.2019 02:46 19,5 C 73 % 1015,4 hPa 0,0 l/m 1,7 km/h (1 Bft) O-SO 107 14,5 C 19,5 C
20.07.2019 02:45 19,5 C 73 % 1015,4 hPa 0,0 l/m 0,0 km/h (0 Bft) O 93 14,5 C 19,5 C
20.07.2019 02:44 19,5 C 73 % 1015,4 hPa 0,0 l/m 1,7 km/h (1 Bft) O 86 14,5 C 19,5 C
20.07.2019 02:43 19,5 C 73 % 1015,4 hPa 0,0 l/m 1,7 km/h (1 Bft) O 88 14,5 C 19,5 C
20.07.2019 02:42 19,5 C 73 % 1015,4 hPa 0,0 l/m 1,7 km/h (1 Bft) O 89 14,5 C 19,5 C
20.07.2019 02:41 19,4 C 73 % 1015,4 hPa 0,0 l/m 1,7 km/h (1 Bft) O 89 14,4 C 19,4 C
20.07.2019 02:40 19,5 C 73 % 1015,4 hPa 0,0 l/m 1,7 km/h (1 Bft) O 90 14,5 C 19,5 C
20.07.2019 02:39 19,4 C 73 % 1015,4 hPa 0,0 l/m 1,7 km/h (1 Bft) O 85 14,4 C 19,4 C
20.07.2019 02:38 19,4 C 73 % 1015,4 hPa 0,0 l/m 1,7 km/h (1 Bft) O 92 14,4 C 19,4 C
20.07.2019 02:37 19,4 C 73 % 1015,4 hPa 0,0 l/m 0,0 km/h (0 Bft) O 82 14,4 C 19,4 C
20.07.2019 02:36 19,4 C 73 % 1015,5 hPa 0,0 l/m 1,7 km/h (1 Bft) O 82 14,4 C 19,4 C
20.07.2019 02:35 19,4 C 73 % 1015,5 hPa 0,0 l/m 1,7 km/h (1 Bft) O 84 14,4 C 19,4 C
20.07.2019 02:34 19,4 C 73 % 1015,5 hPa 0,0 l/m 0,0 km/h (0 Bft) O-NO 73 14,4 C 19,4 C
20.07.2019 02:33 19,4 C 73 % 1015,4 hPa 0,0 l/m 1,7 km/h (1 Bft) O-NO 60 14,4 C 19,4 C
20.07.2019 02:32 19,4 C 73 % 1015,4 hPa 0,0 l/m 0,0 km/h (0 Bft) O 79 14,4 C 19,4 C
20.07.2019 02:31 19,4 C 73 % 1015,5 hPa 0,0 l/m 0,0 km/h (0 Bft) O 79 14,4 C 19,4 C
20.07.2019 02:30 19,4 C 73 % 1015,4 hPa 0,0 l/m 0,0 km/h (0 Bft) O 81 14,4 C 19,4 C
20.07.2019 02:29 19,4 C 73 % 1015,5 hPa 0,0 l/m 0,0 km/h (0 Bft) O 85 14,4 C 19,4 C
20.07.2019 02:28 19,4 C 73 % 1015,4 hPa 0,0 l/m 1,7 km/h (1 Bft) O 84 14,4 C 19,4 C
20.07.2019 02:27 19,4 C 73 % 1015,4 hPa 0,0 l/m 0,0 km/h (0 Bft) O 83 14,4 C 19,4 C
20.07.2019 02:26 19,4 C 73 % 1015,4 hPa 0,0 l/m 1,7 km/h (1 Bft) O 90 14,4 C 19,4 C
20.07.2019 02:25 19,5 C 73 % 1015,5 hPa 0,0 l/m 1,7 km/h (1 Bft) O 93 14,5 C 19,5 C
20.07.2019 02:24 19,5 C 73 % 1015,4 hPa 0,0 l/m 1,7 km/h (1 Bft) O 89 14,5 C 19,5 C
20.07.2019 02:23 19,5 C 73 % 1015,4 hPa 0,0 l/m 3,1 km/h (1 Bft) O 90 14,5 C 19,5 C
20.07.2019 02:22 19,5 C 72 % 1015,4 hPa 0,0 l/m 1,7 km/h (1 Bft) O 94 14,3 C 19,5 C
20.07.2019 02:21 19,6 C 72 % 1015,4 hPa 0,0 l/m 1,7 km/h (1 Bft) O 95 14,4 C 19,6 C
20.07.2019 02:20 19,6 C 72 % 1015,4 hPa 0,0 l/m 1,7 km/h (1 Bft) O 96 14,4 C 19,6 C
20.07.2019 02:19 19,7 C 72 % 1015,5 hPa 0,0 l/m 0,0 km/h (0 Bft) O 96 14,5 C 19,7 C
20.07.2019 02:18 19,7 C 72 % 1015,5 hPa 0,0 l/m 1,7 km/h (1 Bft) O 97 14,5 C 19,7 C
20.07.2019 02:17 19,8 C 72 % 1015,5 hPa 0,0 l/m 1,7 km/h (1 Bft) O 96 14,6 C 19,8 C
20.07.2019 02:16 19,8 C 72 % 1015,4 hPa 0,0 l/m 1,7 km/h (1 Bft) O-SO 106 14,6 C 19,8 C
20.07.2019 02:15 19,8 C 72 % 1015,4 hPa 0,0 l/m 1,7 km/h (1 Bft) O-SO 106 14,6 C 19,8 C
20.07.2019 02:14 19,8 C 72 % 1015,4 hPa 0,0 l/m 1,7 km/h (1 Bft) O-SO 109 14,6 C 19,8 C
20.07.2019 02:13 19,8 C 72 % 1015,5 hPa 0,0 l/m 0,0 km/h (0 Bft) O-SO 106 14,6 C 19,8 C
20.07.2019 02:12 19,8 C 71 % 1015,4 hPa 0,0 l/m 3,1 km/h (1 Bft) O-SO 109 14,4 C 19,8 C
20.07.2019 02:11 19,9 C 71 % 1015,4 hPa 0,0 l/m 1,7 km/h (1 Bft) O 96 14,5 C 19,9 C
20.07.2019 02:10 19,9 C 71 % 1015,5 hPa 0,0 l/m 0,0 km/h (0 Bft) O 98 14,5 C 19,9 C
20.07.2019 02:09 19,9 C 71 % 1015,5 hPa 0,0 l/m 0,0 km/h (0 Bft) O 82 14,5 C 19,9 C
20.07.2019 02:08 19,9 C 71 % 1015,4 hPa 0,0 l/m 0,0 km/h (0 Bft) O 83 14,5 C 19,9 C
20.07.2019 02:07 19,9 C 71 % 1015,5 hPa 0,0 l/m 1,7 km/h (1 Bft) O 83 14,5 C 19,9 C
20.07.2019 02:06 19,9 C 71 % 1015,5 hPa 0,0 l/m 1,7 km/h (1 Bft) O 83 14,5 C 19,9 C
20.07.2019 02:05 19,9 C 71 % 1015,4 hPa 0,0 l/m 1,7 km/h (1 Bft) O-NO 67 14,5 C 19,9 C
20.07.2019 02:04 19,9 C 71 % 1015,4 hPa 0,0 l/m 1,7 km/h (1 Bft) O-NO 67 14,5 C 19,9 C
20.07.2019 02:03 19,9 C 71 % 1015,4 hPa 0,0 l/m 1,7 km/h (1 Bft) O-NO 57 14,5 C 19,9 C
20.07.2019 02:02 20,0 C 71 % 1015,5 hPa 0,0 l/m 1,7 km/h (1 Bft) O-NO 72 14,6 C 20,0 C
20.07.2019 02:01 20,0 C 71 % 1015,5 hPa 0,0 l/m 0,0 km/h (0 Bft) O-NO 72 14,6 C 20,0 C
20.07.2019 02:00 20,0 C 71 % 1015,5 hPa 0,0 l/m 1,7 km/h (1 Bft) O-NO 67 14,6 C 20,0 C
20.07.2019 01:59 20,0 C 71 % 1015,5 hPa 0,0 l/m 3,1 km/h (1 Bft) O-NO 72 14,6 C 20,0 C
20.07.2019 01:58 20,0 C 71 % 1015,5 hPa 0,0 l/m 1,7 km/h (1 Bft) O 79 14,6 C 20,0 C
20.07.2019 01:57 20,0 C 71 % 1015,6 hPa 0,0 l/m 3,1 km/h (1 Bft) O 90 14,6 C 20,0 C
20.07.2019 01:56 20,0 C 71 % 1015,5 hPa 0,0 l/m 1,7 km/h (1 Bft) O-NO 78 14,6 C 20,0 C
20.07.2019 01:55 20,0 C 71 % 1015,5 hPa 0,0 l/m 1,7 km/h (1 Bft) O-NO 67 14,6 C 20,0 C
20.07.2019 01:54 20,0 C 71 % 1015,5 hPa 0,0 l/m 3,1 km/h (1 Bft) O-NO 57 14,6 C 20,0 C
20.07.2019 01:53 20,0 C 71 % 1015,5 hPa 0,0 l/m 3,1 km/h (1 Bft) O-NO 67 14,6 C 20,0 C
20.07.2019 01:52 20,0 C 71 % 1015,6 hPa 0,0 l/m 3,1 km/h (1 Bft) O-NO 61 14,6 C 20,0 C
20.07.2019 01:51 20,0 C 71 % 1015,5 hPa 0,0 l/m 3,1 km/h (1 Bft) NO 55 14,6 C 20,0 C
20.07.2019 01:50 20,0 C 71 % 1015,6 hPa 0,0 l/m 3,1 km/h (1 Bft) O-NO 57 14,6 C 20,0 C
20.07.2019 01:49 20,0 C 71 % 1015,6 hPa 0,0 l/m 3,1 km/h (1 Bft) O-NO 58 14,6 C 20,0 C
20.07.2019 01:48 20,0 C 71 % 1015,5 hPa 0,0 l/m 3,1 km/h (1 Bft) O-NO 58 14,6 C 20,0 C
20.07.2019 01:47 19,9 C 71 % 1015,6 hPa 0,0 l/m 3,1 km/h (1 Bft) NO 51 14,5 C 19,9 C
20.07.2019 01:46 19,9 C 71 % 1015,6 hPa 0,0 l/m 4,8 km/h (1 Bft) NO 53 14,5 C 19,9 C
20.07.2019 01:45 19,9 C 71 % 1015,6 hPa 0,0 l/m 3,1 km/h (1 Bft) NO 42 14,5 C 19,9 C
20.07.2019 01:44 19,9 C 71 % 1015,6 hPa 0,0 l/m 1,7 km/h (1 Bft) O-NO 67 14,5 C 19,9 C
20.07.2019 01:43 19,9 C 71 % 1015,5 hPa 0,0 l/m 4,8 km/h (1 Bft) NO 49 14,5 C 19,9 C
20.07.2019 01:42 19,9 C 71 % 1015,7 hPa 0,0 l/m 4,8 km/h (1 Bft) NO 39 14,5 C 19,9 C
20.07.2019 01:41 19,9 C 71 % 1015,6 hPa 0,0 l/m 4,8 km/h (1 Bft) NO 42 14,5 C 19,9 C
20.07.2019 01:40 19,9 C 71 % 1015,6 hPa 0,0 l/m 4,8 km/h (1 Bft) NO 37 14,5 C 19,9 C
20.07.2019 01:39 19,9 C 71 % 1015,5 hPa 0,0 l/m 3,1 km/h (1 Bft) NO 35 14,5 C 19,9 C
20.07.2019 01:38 19,9 C 71 % 1015,5 hPa 0,0 l/m 3,1 km/h (1 Bft) N-NO 28 14,5 C 19,9 C
20.07.2019 01:37 19,9 C 71 % 1015,6 hPa 0,0 l/m 3,1 km/h (1 Bft) NO 34 14,5 C 19,9 C
20.07.2019 01:36 19,9 C 71 % 1015,6 hPa 0,0 l/m 1,7 km/h (1 Bft) NO 48 14,5 C 19,9 C
20.07.2019 01:35 19,9 C 71 % 1015,6 hPa 0,0 l/m 3,1 km/h (1 Bft) NO 50 14,5 C 19,9 C
20.07.2019 01:34 19,9 C 71 % 1015,6 hPa 0,0 l/m 3,1 km/h (1 Bft) NO 48 14,5 C 19,9 C
20.07.2019 01:33 19,9 C 71 % 1015,6 hPa 0,0 l/m 3,1 km/h (1 Bft) NO 40 14,5 C 19,9 C
20.07.2019 01:32 19,9 C 71 % 1015,5 hPa 0,0 l/m 0,0 km/h (0 Bft) O-NO 73 14,5 C 19,9 C
20.07.2019 01:31 19,9 C 71 % 1015,6 hPa 0,0 l/m 3,1 km/h (1 Bft) NO 49 14,5 C 19,9 C
20.07.2019 01:30 19,9 C 71 % 1015,6 hPa 0,0 l/m 1,7 km/h (1 Bft) NO 44 14,5 C 19,9 C
20.07.2019 01:29 19,9 C 71 % 1015,6 hPa 0,0 l/m 1,7 km/h (1 Bft) NO 43 14,5 C 19,9 C
20.07.2019 01:28 20,0 C 71 % 1015,6 hPa 0,0 l/m 4,8 km/h (1 Bft) NO 44 14,6 C 20,0 C
20.07.2019 01:27 20,0 C 71 % 1015,5 hPa 0,0 l/m 3,1 km/h (1 Bft) NO 51 14,6 C 20,0 C
20.07.2019 01:26 20,0 C 71 % 1015,6 hPa 0,0 l/m 3,1 km/h (1 Bft) NO 44 14,6 C 20,0 C
20.07.2019 01:25 20,0 C 71 % 1015,6 hPa 0,0 l/m 1,7 km/h (1 Bft) N-NO 30 14,6 C 20,0 C
20.07.2019 01:24 20,0 C 71 % 1015,6 hPa 0,0 l/m 3,1 km/h (1 Bft) NO 48 14,6 C 20,0 C
20.07.2019 01:23 20,0 C 71 % 1015,5 hPa 0,0 l/m 1,7 km/h (1 Bft) O-NO 59 14,6 C 20,0 C
20.07.2019 01:22 20,0 C 71 % 1015,6 hPa 0,0 l/m 1,7 km/h (1 Bft) O-NO 59 14,6 C 20,0 C
20.07.2019 01:21 20,0 C 71 % 1015,6 hPa 0,0 l/m 1,7 km/h (1 Bft) O-NO 76 14,6 C 20,0 C
20.07.2019 01:20 20,0 C 71 % 1015,6 hPa 0,0 l/m 4,8 km/h (1 Bft) NO 36 14,6 C 20,0 C
20.07.2019 01:19 20,1 C 70 % 1015,5 hPa 0,0 l/m 3,1 km/h (1 Bft) NO 38 14,5 C 20,1 C
20.07.2019 01:18 20,1 C 70 % 1015,6 hPa 0,0 l/m 1,7 km/h (1 Bft) N-NO 17 14,5 C 20,1 C
20.07.2019 01:17 20,1 C 70 % 1015,6 hPa 0,0 l/m 1,7 km/h (1 Bft) NO 42 14,5 C 20,1 C
20.07.2019 01:16 20,1 C 70 % 1015,6 hPa 0,0 l/m 1,7 km/h (1 Bft) NO 45 14,5 C 20,1 C
20.07.2019 01:15 20,1 C 70 % 1015,6 hPa 0,0 l/m 1,7 km/h (1 Bft) NO 51 14,5 C 20,1 C
20.07.2019 01:14 20,1 C 70 % 1015,6 hPa 0,0 l/m 1,7 km/h (1 Bft) NO 54 14,5 C 20,1 C
20.07.2019 01:13 20,1 C 70 % 1015,6 hPa 0,0 l/m 0,0 km/h (0 Bft) O-NO 57 14,5 C 20,1 C
20.07.2019 01:12 20,1 C 70 % 1015,6 hPa 0,0 l/m 1,7 km/h (1 Bft) O-NO 67 14,5 C 20,1 C
20.07.2019 01:11 20,2 C 70 % 1015,6 hPa 0,0 l/m 1,7 km/h (1 Bft) O-NO 67 14,5 C 20,2 C
20.07.2019 01:10 20,2 C 70 % 1015,6 hPa 0,0 l/m 0,0 km/h (0 Bft) O-NO 67 14,5 C 20,2 C
20.07.2019 01:09 20,2 C 70 % 1015,5 hPa 0,0 l/m 0,0 km/h (0 Bft) O-NO 67 14,5 C 20,2 C
20.07.2019 01:08 20,3 C 70 % 1015,6 hPa 0,0 l/m 0,0 km/h (0 Bft) O-NO 67 14,6 C 20,3 C
20.07.2019 01:07 20,3 C 70 % 1015,6 hPa 0,0 l/m 0,0 km/h (0 Bft) O-NO 67 14,6 C 20,3 C
20.07.2019 01:06 20,3 C 70 % 1015,6 hPa 0,0 l/m 0,0 km/h (0 Bft) O-NO 67 14,6 C 20,3 C
20.07.2019 01:05 20,3 C 70 % 1015,6 hPa 0,0 l/m 0,0 km/h (0 Bft) O-NO 67 14,6 C 20,3 C
20.07.2019 01:04 20,4 C 70 % 1015,6 hPa 0,0 l/m 0,0 km/h (0 Bft) O-NO 67 14,7 C 20,4 C
20.07.2019 01:03 20,4 C 70 % 1015,6 hPa 0,0 l/m 0,0 km/h (0 Bft) O-NO 67 14,7 C 20,4 C
20.07.2019 01:02 20,4 C 69 % 1015,6 hPa 0,0 l/m 0,0 km/h (0 Bft) O-NO 67 14,5 C 20,4 C
20.07.2019 01:01 20,4 C 69 % 1015,6 hPa 0,0 l/m 0,0 km/h (0 Bft) O-NO 67 14,5 C 20,4 C
20.07.2019 01:00 20,4 C 69 % 1015,6 hPa 0,0 l/m 0,0 km/h (0 Bft) O-NO 67 14,5 C 20,4 C
20.07.2019 00:59 20,5 C 69 % 1015,6 hPa 0,0 l/m 0,0 km/h (0 Bft) O-NO 67 14,6 C 20,5 C
20.07.2019 00:58 20,5 C 69 % 1015,6 hPa 0,0 l/m 0,0 km/h (0 Bft) O-NO 67 14,6 C 20,5 C
20.07.2019 00:57 20,5 C 69 % 1015,6 hPa 0,0 l/m 0,0 km/h (0 Bft) O-NO 67 14,6 C 20,5 C
20.07.2019 00:56 20,5 C 69 % 1015,6 hPa 0,0 l/m 1,7 km/h (1 Bft) O-NO 65 14,6 C 20,5 C
20.07.2019 00:55 20,5 C 69 % 1015,6 hPa 0,0 l/m 1,7 km/h (1 Bft) O-NO 67 14,6 C 20,5 C
20.07.2019 00:54 20,5 C 69 % 1015,6 hPa 0,0 l/m 0,0 km/h (0 Bft) O 84 14,6 C 20,5 C
20.07.2019 00:53 20,5 C 69 % 1015,6 hPa 0,0 l/m 1,7 km/h (1 Bft) O 84 14,6 C 20,5 C
20.07.2019 00:52 20,5 C 69 % 1015,6 hPa 0,0 l/m 0,0 km/h (0 Bft) O-NO 76 14,6 C 20,5 C
20.07.2019 00:51 20,5 C 69 % 1015,6 hPa 0,0 l/m 3,1 km/h (1 Bft) O-NO 69 14,6 C 20,5 C
20.07.2019 00:50 20,5 C 69 % 1015,6 hPa 0,0 l/m 0,0 km/h (0 Bft) O-NO 69 14,6 C 20,5 C
20.07.2019 00:49 20,5 C 69 % 1015,6 hPa 0,0 l/m 4,8 km/h (1 Bft) O 79 14,6 C 20,5 C
20.07.2019 00:48 20,6 C 69 % 1015,6 hPa 0,0 l/m 1,7 km/h (1 Bft) O-NO 70 14,7 C 20,6 C
20.07.2019 00:47 20,6 C 69 % 1015,6 hPa 0,0 l/m 1,7 km/h (1 Bft) NO 42 14,7 C 20,6 C
20.07.2019 00:46 20,6 C 69 % 1015,6 hPa 0,0 l/m 0,0 km/h (0 Bft) NO 42 14,7 C 20,6 C
20.07.2019 00:45 20,6 C 69 % 1015,6 hPa 0,0 l/m 1,7 km/h (1 Bft) NO 42 14,7 C 20,6 C
20.07.2019 00:44 20,6 C 69 % 1015,6 hPa 0,0 l/m 1,7 km/h (1 Bft) NO 50 14,7 C 20,6 C
20.07.2019 00:43 20,6 C 69 % 1015,6 hPa 0,0 l/m 3,1 km/h (1 Bft) NO 54 14,7 C 20,6 C
20.07.2019 00:42 20,6 C 69 % 1015,6 hPa 0,0 l/m 0,0 km/h (0 Bft) O-NO 62 14,7 C 20,6 C
20.07.2019 00:41 20,7 C 69 % 1015,6 hPa 0,0 l/m 1,7 km/h (1 Bft) O-NO 71 14,8 C 20,7 C
20.07.2019 00:40 20,7 C 68 % 1015,6 hPa 0,0 l/m 1,7 km/h (1 Bft) O 80 14,6 C 20,7 C
20.07.2019 00:39 20,7 C 68 % 1015,6 hPa 0,0 l/m 1,7 km/h (1 Bft) O-NO 58 14,6 C 20,7 C
20.07.2019 00:38 20,8 C 68 % 1015,6 hPa 0,0 l/m 1,7 km/h (1 Bft) O-NO 63 14,7 C 20,8 C
20.07.2019 00:37 20,8 C 68 % 1015,7 hPa 0,0 l/m 1,7 km/h (1 Bft) O-NO 67 14,7 C 20,8 C
20.07.2019 00:36 20,8 C 68 % 1015,7 hPa 0,0 l/m 1,7 km/h (1 Bft) O-NO 58 14,7 C 20,8 C
20.07.2019 00:35 20,8 C 68 % 1015,7 hPa 0,0 l/m 4,8 km/h (1 Bft) O 85 14,7 C 20,8 C
20.07.2019 00:34 20,8 C 68 % 1015,6 hPa 0,0 l/m 1,7 km/h (1 Bft) O 87 14,7 C 20,8 C
20.07.2019 00:33 20,8 C 68 % 1015,6 hPa 0,0 l/m 4,8 km/h (1 Bft) O 95 14,7 C 20,8 C
20.07.2019 00:32 20,8 C 68 % 1015,7 hPa 0,0 l/m 1,7 km/h (1 Bft) O-NO 74 14,7 C 20,8 C
20.07.2019 00:31 20,8 C 68 % 1015,7 hPa 0,0 l/m 1,7 km/h (1 Bft) O 94 14,7 C 20,8 C
20.07.2019 00:30 20,8 C 68 % 1015,7 hPa 0,0 l/m 3,1 km/h (1 Bft) O 88 14,7 C 20,8 C
20.07.2019 00:29 20,8 C 68 % 1015,6 hPa 0,0 l/m 1,7 km/h (1 Bft) O 91 14,7 C 20,8 C
20.07.2019 00:28 20,8 C 68 % 1015,7 hPa 0,0 l/m 4,8 km/h (1 Bft) O 86 14,7 C 20,8 C
20.07.2019 00:27 20,8 C 68 % 1015,6 hPa 0,0 l/m 1,7 km/h (1 Bft) O 80 14,7 C 20,8 C
20.07.2019 00:26 20,8 C 68 % 1015,6 hPa 0,0 l/m 3,1 km/h (1 Bft) O-NO 76 14,7 C 20,8 C
20.07.2019 00:25 20,8 C 68 % 1015,6 hPa 0,0 l/m 1,7 km/h (1 Bft) O-NO 63 14,7 C 20,8 C
20.07.2019 00:24 20,9 C 68 % 1015,6 hPa 0,0 l/m 3,1 km/h (1 Bft) O-NO 68 14,8 C 20,9 C
20.07.2019 00:23 20,9 C 68 % 1015,6 hPa 0,0 l/m 3,1 km/h (1 Bft) NO 55 14,8 C 20,9 C
20.07.2019 00:22 20,9 C 68 % 1015,6 hPa 0,0 l/m 3,1 km/h (1 Bft) O-NO 68 14,8 C 20,9 C
20.07.2019 00:21 20,9 C 68 % 1015,6 hPa 0,0 l/m 1,7 km/h (1 Bft) O 81 14,8 C 20,9 C
20.07.2019 00:20 20,9 C 68 % 1015,6 hPa 0,0 l/m 3,1 km/h (1 Bft) O 81 14,8 C 20,9 C
20.07.2019 00:19 20,9 C 68 % 1015,6 hPa 0,0 l/m 1,7 km/h (1 Bft) O 82 14,8 C 20,9 C
20.07.2019 00:18 20,9 C 68 % 1015,6 hPa 0,0 l/m 3,1 km/h (1 Bft) O-NO 66 14,8 C 20,9 C
20.07.2019 00:17 20,9 C 68 % 1015,6 hPa 0,0 l/m 0,0 km/h (0 Bft) O-NO 65 14,8 C 20,9 C
20.07.2019 00:16 20,9 C 68 % 1015,6 hPa 0,0 l/m 3,1 km/h (1 Bft) O-NO 68 14,8 C 20,9 C
20.07.2019 00:15 20,9 C 68 % 1015,6 hPa 0,0 l/m 0,0 km/h (0 Bft) O-NO 68 14,8 C 20,9 C
20.07.2019 00:14 20,9 C 68 % 1015,6 hPa 0,0 l/m 1,7 km/h (1 Bft) O-NO 68 14,8 C 20,9 C
20.07.2019 00:13 20,9 C 67 % 1015,6 hPa 0,0 l/m 1,7 km/h (1 Bft) O-NO 69 14,5 C 20,9 C
20.07.2019 00:12 21,0 C 67 % 1015,6 hPa 0,0 l/m 0,0 km/h (0 Bft) O-NO 69 14,6 C 21,0 C
20.07.2019 00:11 21,0 C 67 % 1015,6 hPa 0,0 l/m 0,0 km/h (0 Bft) O-NO 69 14,6 C 21,0 C
20.07.2019 00:10 21,0 C 67 % 1015,6 hPa 0,0 l/m 1,7 km/h (1 Bft) O-NO 69 14,6 C 21,0 C
20.07.2019 00:09 21,0 C 67 % 1015,6 hPa 0,0 l/m 1,7 km/h (1 Bft) NO 55 14,6 C 21,0 C
20.07.2019 00:08 21,0 C 67 % 1015,6 hPa 0,0 l/m 0,0 km/h (0 Bft) NO 55 14,6 C 21,0 C
20.07.2019 00:07 21,0 C 67 % 1015,6 hPa 0,0 l/m 0,0 km/h (0 Bft) NO 55 14,6 C 21,0 C
20.07.2019 00:06 21,0 C 67 % 1015,6 hPa 0,0 l/m 0,0 km/h (0 Bft) NO 55 14,6 C 21,0 C
20.07.2019 00:05 21,0 C 67 % 1015,6 hPa 0,0 l/m 0,0 km/h (0 Bft) NO 55 14,6 C 21,0 C
20.07.2019 00:04 21,1 C 67 % 1015,6 hPa 0,0 l/m 0,0 km/h (0 Bft) NO 56 14,7 C 21,1 C
20.07.2019 00:03 21,1 C 67 % 1015,6 hPa 0,0 l/m 0,0 km/h (0 Bft) NO 56 14,7 C 21,1 C
20.07.2019 00:02 21,1 C 67 % 1015,6 hPa 0,0 l/m 0,0 km/h (0 Bft) NO 56 14,7 C 21,1 C
20.07.2019 00:01 21,1 C 67 % 1015,5 hPa 0,0 l/m 3,1 km/h (1 Bft) NO 42 14,7 C 21,1 C
20.07.2019 00:00 21,1 C 67 % 1015,6 hPa 0,0 l/m 1,7 km/h (1 Bft) NO 46 14,7 C 21,1 C
_ Min-Zeit 05:26 09:25 02:54 - 00:02 - - 05:11 05:26
Minimum _ 16,0 C 65 % 1015,3 hPa - 0,0 km/h (0 Bft) - - 13,7 C 16,0 C
_ Max-Zeit 09:24 05:28 09:35 00:00 08:58 - - 09:23 09:32
Maximum _ 22,1 C 89 % 1016,2 hPa 0,0 l/m 13,0 km/h
O-SO (3 Bft)
- - 15,6 C 22,1 C
Durchschnitt _ 18,9 C 76 % 1015,6 hPa #0,0 l/m 1,6 km/h (1 Bft) O - 14,6 C 18,8 C